Location: Sihaung
(22.8641°N, 94.0549°E)
Time: 15:40:43
(UTC+00:00)

SL-8 Rocket - Pass Details

Date: 03 March 2021
Orbit: 957 x 991 km, 82.9° (Epoch: 13 April)

Event Time Altitude Azimuth Distance (km) Brightness Sun altitude
Rises 12:45:03 0° 170° (S) 3,679 6.9 -13.9°
Reaches altitude 10° 12:47:38 10° 165° (SSE) 2,730 6.2 -14.5°
Maximum altitude 12:53:39 51° 91° (E) 1,218 4.1 -15.9°
Drops below altitude 10° 12:59:37 10° 18° (NNE) 2,716 6.2 -17.3°
Sets 13:02:11 0° 13° (NNE) 3,660 6.9 -17.9°
